Temp
14 14 14 13 13 13 13 12 12 11 10 10 10 11 11 11 11 11 11 11 11 10 10 11 10 10 10 10 10 10 10 10 10 9 9 9 9 9 8 8 8 8 8
14 14 14 13 13 13 12 12 12 12 12 11 11 11 11 11 11 11 11 11 11 11 10 10 10 10 10 9 10 10 10 10 10 10 9 9 9 9 9 9 8 8 8
15 15 14 14 13 13 12 12 13 13 13 13 13 12 11 11 11 11 11 11 11 11 11 10 10 10 10 10 10 10 9 10 10 10 10 10 10 9 9 9 8 8 8
16 15 14 14 14 13 13 13 13 12 12 12 12 11 11 11 11 11 11 11 11 11 11 11 10 10 10 10 10 10 9 9 9 10 10 10 10 9 10 9 9 9 8
17 16 15 14 14 14 14 13 13 13 12 12 12 12 12 12 11 11 11 11 11 11 11 11 11 10 10 10 10 10 10 10 9 9 9 10 10 9 9 9 9 9 9
18 16 15 15 14 14 13 13 13 13 13 12 12 12 12 11 12 11 11 12 11 11 10 10 10 11 10 9 10 10 10 10 9 9 9 9 9 9 9 9 9 9 9
18 17 16 15 14 13 13 13 12 12 12 12 11 11 11 11 11 10 11 11 10 10 11 10 10 10 10 10 9 9 9 9 9 9 9 9 9 9 9 9 9 9 9
18 16 15 14 13 12 12 12 11 11 12 11 11 11 10 9 9 10 10 11 11 11 11 11 10 10 10 10 10 9 9 9 8 9 9 9 8 8 9 9 9 9 9
17 15 14 13 12 11 11 11 11 11 10 10 9 9 11 10 10 9 10 9 10 10 10 10 10 10 10 10 10 9 9 8 8 8 8 8 8 8 8 8 9 9 9
14 12 11 11 10 10 10 10 10 9 9 8 8 8 9 10 9 10 9 9 9 9 9 9 9 9 8 7 8 9 9 9 8 8 8 8 8 8 8 8 8 8 8
12 11 11 10 8 8 9 9 8 8 8 8 9 10 9 8 8 8 9 8 9 9 8 8 8 8 8 7 7 7 8 8 8 8 8 8 8 8 8 8 7 7 8
13 11 12 11 8 7 7 7 8 9 9 9 10 9 8 7 7 7 8 8 8 7 7 7 7 6 7 7 7 6 6 7 7 8 8 8 8 8 8 8 7 8 7
11 12 11 6 7 8 6 8 9 9 10 11 9 7 8 7 7 7 8 7 7 7 7 6 5 5 5 5 5 6 7 7 6 6 7 8 7 7 7 8 8 8 8
12 13 12 10 7 7 6 8 9 9 9 8 8 6 7 7 6 6 6 6 5 5 5 5 5 4 4 3 4 4 5 6 6 6 6 7 7 7 7 6 7 7 8
13 12 11 9 8 7 8 8 9 9 8 7 7 7 7 6 6 5 4 4 3 3 4 3 4 4 4 3 4 4 4 4 5 5 5 6 6 7 7 6 6 6 7
12 12 10 8 7 7 7 8 7 6 6 6 6 5 5 5 4 4 3 3 2 3 3 3 3 3 2 3 2 3 4 4 5 5 5 5 5 6 6 6 6 6 6
11 8 8 8 7 7 6 6 5 6 5 5 5 4 4 4 3 2 2 2 2 2 3 3 2 1 1 1 1 1 3 3 3 2 3 4 3 4 5 5 5 5 5
9 7 7 6 6 6 5 5 5 5 5 5 4 4 3 2 2 2 2 2 2 2 1 1 1 1 1 1 1 1 0 1 2 2 2 2 2 2 2 3 3 4 4
7 7 7 6 6 5 5 5 5 5 4 4 4 3 2 1 1 1 2 2 1 1 1 1 0 0 1 2 1 1 0 0 0 0 1 1 2 2 2 1 2 3 2
7 6 6 6 6 6 6 6 5 5 4 4 3 2 1 1 1 1 1 1 0 0 0 -0 0 0 1 1 1 1 0 0 1 1 1 1 1 1 2 2 2 2 2
6 6 6 6 6 5 5 5 5 3 3 3 2 2 2 1 0 0 0 0 0 -0 0 0 -0 1 1 1 0 1 1 1 1 1 1 0 0 1 2 2 2 2 2
5 6 6 5 5 5 5 5 3 2 2 1 1 1 1 1 0 0 1 1 1 0 0 0 0 1 0 1 0 0 1 1 1 1 1 1 0 0 1 2 2 2 2
4 4 4 4 4 4 5 4 2 1 0 0 1 1 0 0 -0 -0 0 1 1 0 0 0 0 1 0 0 1 0 1 1 1 1 1 1 1 1 1 1 1 2 2
3 3 3 3 4 4 4 2 1 -0 -0 0 0 1 1 0 0 0 -1 -0 -0 -1 -0 -0 -0 -0 0 0 1 -0 -1 1 1 0 1 1 1 1 2 1 1 2 1
3 3 3 4 4 4 4 3 2 1 1 1 1 2 1 1 1 -1 -0 -0 -1 -2 -1 -1 -1 -1 -0 -0 -0 -0 -1 0 1 1 1 1 1 2 1 2 2 2 2
2 2 3 3 3 3 3 3 1 1 1 2 2 2 1 1 1 1 1 -0 -0 -0 -1 -1 -1 -1 -1 -1 -0 -0 0 1 1 2 1 1 2 1 1 2 2 2 2
Height
3201 3202 3204 3205 3206 3207 3208 3208 3207 3206 3206 3206 3205 3205 3205 3205 3203 3201 3199 3195 3194 3190 3188 3186 3184 3183 3181 3179 3179 3177 3175 3174 3172 3170 3167 3164 3161 3159 3154 3151 3149 3150 3150
3197 3198 3200 3201 3203 3204 3205 3206 3205 3204 3203 3202 3201 3202 3203 3202 3200 3198 3196 3191 3189 3186 3183 3181 3180 3178 3177 3175 3174 3173 3172 3170 3169 3168 3166 3164 3160 3157 3153 3151 3149 3148 3148
3193 3194 3195 3196 3198 3200 3202 3202 3202 3201 3200 3199 3199 3199 3200 3198 3197 3194 3191 3187 3184 3183 3180 3178 3176 3173 3172 3170 3169 3167 3166 3165 3163 3161 3161 3159 3158 3155 3153 3148 3147 3146 3146
3187 3189 3191 3192 3193 3195 3196 3196 3197 3197 3197 3196 3196 3196 3195 3193 3192 3190 3187 3184 3180 3177 3175 3172 3169 3167 3165 3163 3162 3161 3160 3158 3158 3156 3155 3153 3152 3151 3150 3148 3144 3143 3143
3182 3183 3185 3187 3189 3189 3190 3190 3192 3193 3193 3191 3190 3190 3189 3187 3184 3182 3180 3178 3174 3170 3168 3165 3163 3160 3158 3156 3154 3153 3152 3152 3151 3149 3149 3148 3147 3146 3144 3144 3142 3139 3140
3178 3180 3182 3184 3187 3187 3188 3188 3188 3188 3186 3186 3185 3184 3182 3181 3179 3176 3174 3171 3169 3164 3160 3156 3152 3150 3148 3147 3145 3145 3145 3143 3142 3141 3141 3140 3139 3139 3139 3138 3137 3136 3135
3174 3176 3178 3180 3181 3181 3183 3183 3184 3182 3182 3181 3179 3179 3176 3173 3170 3167 3163 3159 3157 3155 3151 3149 3146 3141 3137 3136 3137 3136 3135 3134 3133 3132 3131 3132 3132 3131 3129 3130 3131 3131 3130
3170 3172 3173 3176 3176 3177 3179 3177 3178 3178 3178 3177 3175 3172 3171 3168 3161 3156 3153 3151 3149 3146 3142 3140 3137 3134 3130 3127 3125 3124 3124 3124 3123 3122 3121 3124 3123 3122 3121 3120 3120 3122 3123
3164 3167 3169 3173 3175 3175 3173 3173 3175 3177 3175 3172 3169 3165 3161 3157 3152 3147 3141 3140 3139 3137 3133 3129 3126 3124 3122 3118 3115 3113 3113 3112 3111 3110 3110 3112 3113 3114 3113 3111 3112 3111 3111
3162 3166 3169 3170 3167 3171 3173 3171 3170 3170 3169 3166 3161 3156 3153 3149 3144 3140 3135 3131 3128 3125 3123 3119 3115 3113 3112 3109 3104 3101 3098 3098 3097 3097 3096 3097 3099 3101 3102 3099 3101 3100 3101
3155 3156 3165 3142 3142 3159 3174 3170 3166 3162 3161 3157 3151 3148 3145 3141 3136 3132 3127 3122 3118 3113 3110 3108 3105 3103 3100 3098 3095 3091 3088 3085 3084 3083 3082 3083 3083 3085 3087 3088 3088 3087 3088
3143 3149 3144 3145 3151 3152 3171 3165 3157 3153 3152 3148 3145 3141 3136 3132 3127 3122 3118 3114 3109 3105 3101 3096 3092 3091 3090 3088 3082 3080 3077 3074 3072 3071 3069 3069 3070 3071 3074 3074 3073 3074 3074
3143 3143 3143 3141 3143 3148 3156 3155 3149 3146 3143 3137 3130 3127 3125 3122 3116 3111 3107 3102 3099 3093 3088 3083 3080 3078 3077 3076 3073 3068 3063 3062 3060 3058 3058 3056 3057 3059 3058 3059 3060 3060 3061
3137 3136 3128 3126 3133 3140 3145 3143 3137 3134 3129 3125 3121 3117 3113 3110 3106 3101 3095 3089 3084 3079 3075 3072 3067 3065 3064 3063 3059 3055 3050 3047 3045 3045 3045 3044 3043 3044 3045 3046 3045 3047 3048
3129 3125 3122 3127 3129 3132 3134 3131 3129 3124 3120 3115 3111 3106 3101 3101 3095 3089 3084 3078 3072 3068 3062 3059 3054 3051 3049 3047 3043 3039 3035 3032 3032 3030 3028 3029 3030 3030 3031 3032 3033 3034 3034
3123 3121 3120 3122 3125 3124 3124 3123 3119 3113 3111 3108 3101 3096 3092 3084 3086 3078 3072 3065 3061 3057 3051 3046 3041 3037 3033 3029 3025 3021 3017 3015 3015 3015 3014 3014 3014 3015 3017 3019 3021 3021 3022
3115 3116 3118 3118 3118 3118 3116 3113 3111 3104 3101 3096 3090 3087 3081 3076 3074 3067 3062 3054 3051 3046 3040 3034 3029 3026 3022 3017 3011 3005 3001 3001 3000 2999 3000 3000 3000 3001 3003 3005 3007 3009 3011
3110 3111 3112 3112 3112 3110 3107 3103 3100 3095 3090 3083 3077 3073 3070 3067 3063 3057 3049 3044 3041 3035 3029 3026 3022 3017 3010 3004 2997 2991 2986 2985 2985 2986 2986 2987 2987 2988 2990 2993 2995 2996 2997
3105 3107 3107 3106 3103 3100 3096 3092 3086 3084 3078 3072 3063 3060 3059 3058 3053 3044 3038 3034 3029 3026 3024 3020 3014 3008 3002 2995 2987 2982 2977 2974 2973 2972 2972 2972 2973 2975 2977 2980 2983 2986 2987
3102 3101 3099 3097 3094 3091 3087 3084 3082 3076 3067 3059 3051 3049 3046 3045 3041 3036 3032 3028 3024 3020 3016 3011 3006 3001 2995 2989 2982 2976 2973 2969 2966 2962 2959 2957 2958 2960 2962 2966 2970 2973 2976
3095 3093 3091 3089 3087 3084 3082 3078 3070 3065 3057 3051 3049 3045 3044 3039 3036 3032 3027 3023 3019 3013 3009 3005 3001 2995 2990 2983 2978 2973 2968 2963 2958 2953 2948 2945 2944 2946 2950 2953 2957 2961 2965
3088 3086 3084 3082 3079 3077 3074 3068 3061 3056 3051 3049 3047 3042 3037 3034 3032 3027 3022 3018 3012 3008 3004 3000 2996 2990 2985 2980 2974 2969 2964 2958 2953 2947 2941 2937 2935 2935 2938 2941 2945 2950 2954
3079 3079 3077 3076 3075 3073 3068 3061 3055 3052 3050 3047 3042 3037 3035 3031 3028 3024 3018 3013 3009 3006 3001 2997 2992 2987 2982 2977 2972 2966 2961 2956 2950 2943 2938 2933 2929 2927 2928 2932 2934 2938 2944
3075 3072 3071 3069 3067 3063 3059 3055 3051 3047 3044 3041 3038 3036 3033 3029 3024 3018 3014 3011 3008 3004 2999 2995 2990 2985 2981 2976 2971 2965 2959 2954 2949 2942 2936 2932 2928 2925 2924 2925 2926 2930 2934
3071 3069 3068 3066 3063 3060 3056 3052 3049 3046 3043 3041 3038 3035 3030 3025 3021 3017 3014 3011 3007 3004 2999 2995 2990 2986 2980 2975 2970 2965 2959 2954 2948 2943 2938 2933 2929 2926 2926 2924 2924 2925 2929
3067 3066 3065 3063 3061 3058 3055 3052 3049 3047 3043 3040 3037 3033 3029 3026 3023 3020 3016 3013 3009 3004 3001 2997 2992 2987 2982 2976 2971 2965 2960 2955 2950 2945 2940 2936 2931 2928 2925 2925 2926 2927 2928
Wind_Speed
16 15 16 16 13 13 12 11 13 14 14 17 18 17 15 17 18 20 21 24 23 23 21 17 15 15 14 14 15 12 11 9 6 6 6 11 15 17 15 13 8 17 19
15 16 15 17 16 14 14 13 9 7 10 11 16 18 18 19 22 25 25 26 24 22 22 20 17 17 17 17 16 16 14 14 14 10 9 11 12 15 15 12 8 14 9
18 17 15 17 18 16 15 14 10 7 6 7 7 11 16 21 22 23 25 25 24 22 21 19 18 20 19 21 21 18 18 19 19 17 16 15 13 13 14 14 10 9 7
18 17 17 18 19 16 17 15 14 10 8 9 11 14 17 20 23 23 23 24 24 24 24 25 22 21 22 21 22 22 23 23 22 21 20 20 17 15 14 12 9 13 13
19 18 18 19 20 20 18 17 16 12 11 13 14 16 18 20 22 22 23 25 26 26 26 27 27 27 25 24 25 24 25 26 27 24 22 22 19 18 17 14 9 9 11
21 20 21 22 16 17 15 14 14 16 14 13 16 18 21 22 21 21 26 32 34 35 32 30 29 28 30 29 27 28 28 27 26 27 26 23 19 22 22 18 17 13 11
20 22 21 18 18 19 15 16 16 15 15 17 18 20 21 21 23 30 33 31 28 32 35 34 33 30 30 31 31 31 31 30 32 31 30 25 24 25 27 24 23 23 19
23 24 23 21 21 21 17 16 16 16 18 18 18 20 25 26 30 33 34 31 29 28 29 32 34 33 31 32 33 33 34 34 34 35 34 28 27 27 29 30 30 28 26
26 26 26 25 22 19 19 17 14 16 16 18 21 27 30 34 40 39 40 37 33 30 29 30 35 35 33 33 33 33 32 34 37 38 39 38 34 32 31 32 31 33 31
24 24 23 23 21 20 14 12 12 15 18 22 26 30 34 41 43 42 38 41 37 33 31 34 36 35 33 33 32 33 32 32 34 37 40 42 42 38 37 37 36 36 38
23 22 22 21 7 6 10 11 13 16 22 28 31 37 41 39 37 37 39 39 38 37 35 32 34 36 38 36 30 32 35 36 36 38 38 39 40 42 40 42 42 42 42
33 30 34 44 32 17 20 20 22 28 36 37 37 43 37 37 42 41 38 38 37 37 35 32 33 36 36 38 38 33 33 37 38 37 39 40 39 38 38 39 44 49 48
18 21 34 6 16 29 19 25 28 34 42 46 46 39 40 40 45 45 43 40 36 35 36 33 31 34 36 39 38 38 39 36 37 39 40 40 41 39 37 38 38 43 47
31 31 30 34 27 23 26 31 38 45 46 50 44 37 41 46 48 46 43 44 44 41 39 38 38 36 36 39 41 42 42 42 42 41 39 41 42 40 40 38 39 37 40
17 12 7 2 13 25 35 39 40 36 37 36 39 43 46 50 50 50 48 44 40 41 43 43 45 45 48 48 46 45 44 46 45 46 46 42 40 41 41 40 40 38 40
15 10 3 8 17 25 30 29 31 33 37 40 44 48 51 50 54 51 43 39 40 43 45 47 50 53 50 47 43 42 43 45 45 43 44 43 41 40 41 41 41 40 40
15 4 5 12 18 22 27 30 33 38 43 45 47 49 49 48 46 44 43 40 42 44 47 46 42 40 41 42 43 43 41 36 34 34 35 39 39 39 38 40 39 40 41
11 9 12 18 23 27 30 33 35 38 40 42 44 44 44 44 44 43 41 40 40 36 34 36 38 38 39 39 39 38 36 38 38 36 35 33 36 36 37 37 37 35 38
11 14 18 21 23 26 29 30 33 35 37 41 43 43 42 41 39 39 37 31 26 27 29 29 30 32 28 29 28 27 28 27 28 34 36 38 38 38 37 35 33 33 35
18 18 19 21 23 23 25 27 31 34 36 35 31 29 25 25 23 20 22 23 24 24 28 29 26 20 23 26 26 23 23 25 26 26 31 34 40 42 41 39 37 38 35
19 19 19 20 19 18 23 27 29 23 17 12 9 10 11 13 14 14 12 17 20 21 22 19 24 23 23 23 23 22 25 27 24 27 28 27 29 37 39 39 39 39 37
16 17 17 16 15 21 23 27 20 14 11 12 12 11 13 18 16 13 14 17 22 22 21 18 21 22 21 22 22 22 22 26 20 27 25 22 24 28 34 39 39 36 36
17 15 14 15 17 21 22 21 13 12 11 12 15 15 17 17 12 15 19 18 18 20 18 18 20 19 19 19 25 26 23 24 27 23 20 19 17 19 27 27 31 36 34
16 16 15 15 17 18 18 14 11 11 10 12 13 14 14 14 15 16 16 17 18 18 19 20 23 22 23 23 19 26 22 22 22 26 17 12 12 9 13 18 20 24 26
16 12 11 13 13 13 13 13 12 11 12 12 11 14 16 15 17 18 16 16 18 18 19 22 22 23 21 23 24 21 25 23 22 22 15 18 16 7 4 3 3 9 11
10 9 9 9 9 11 11 9 8 8 8 11 12 12 14 14 14 15 17 18 19 21 22 21 23 25 22 21 23 24 23 21 19 19 16 15 14 15 10 4 1 2 6
Wind_Direction
226 236 239 246 250 255 262 275 285 285 285 271 254 254 260 275 288 307 308 307 313 314 322 333 325 308 303 297 298 305 309 314 312 302 318 322 331 331 326 326 211 223 211
219 235 234 238 242 247 255 265 269 293 292 276 251 245 253 274 284 296 305 305 308 307 312 311 310 301 299 292 286 284 284 284 289 292 290 303 326 336 329 313 281 261 250
219 228 237 232 225 234 246 253 244 259 284 293 284 263 271 278 282 290 293 295 299 302 302 300 298 294 296 293 292 286 276 276 277 282 286 289 296 318 337 317 259 235 239
227 224 227 232 229 224 235 240 235 245 261 273 275 274 276 286 295 305 307 307 308 308 303 298 293 287 282 280 285 288 286 278 270 273 277 278 284 291 310 329 296 251 254
242 229 233 226 222 220 226 228 232 250 269 281 288 291 298 300 302 304 309 311 308 305 304 302 295 288 282 279 277 275 276 277 277 275 274 272 273 271 280 293 295 252 256
250 240 236 240 222 226 232 241 249 255 264 280 292 289 289 292 298 308 315 313 312 301 294 289 287 288 281 275 269 271 273 271 270 271 269 266 263 262 263 268 281 271 261
256 255 249 242 230 238 247 248 253 268 270 271 273 285 298 298 299 305 309 313 303 297 297 297 292 284 280 279 273 267 264 267 270 270 267 265 260 258 259 257 255 263 269
249 249 251 239 234 241 248 256 267 259 263 272 285 298 304 302 308 318 320 315 314 309 304 301 296 291 287 284 278 271 267 266 266 268 271 268 263 259 256 258 257 257 259
248 246 249 244 246 257 265 260 256 265 269 284 297 306 312 311 313 317 314 311 305 300 296 293 289 289 289 286 283 280 275 267 264 266 266 266 263 260 262 262 262 262 258
238 243 246 250 244 253 251 248 249 271 286 294 300 303 309 309 310 308 309 307 305 304 296 291 286 286 285 285 281 276 269 266 262 259 261 263 263 260 257 259 258 259 262
221 223 231 253 171 210 274 271 276 287 300 304 309 302 300 305 303 303 305 306 307 306 304 297 292 289 287 286 284 279 275 271 266 263 259 257 258 260 255 254 256 256 257
218 221 222 241 228 197 287 288 312 313 313 309 293 298 304 302 302 302 305 305 301 300 301 298 293 288 284 283 283 276 271 271 272 268 268 268 264 259 258 254 253 254 253
224 316 321 226 266 243 277 303 300 297 293 290 292 297 301 296 298 305 307 306 304 301 303 305 297 292 289 285 278 275 277 272 270 269 270 269 270 269 261 257 254 254 257
310 310 310 260 270 234 270 287 296 292 296 289 294 296 293 296 299 302 308 308 308 306 303 299 296 291 287 284 281 280 281 280 279 275 269 266 267 264 264 261 259 256 255
319 348 38 290 237 249 262 280 287 289 293 293 293 292 292 295 300 305 305 303 300 299 298 298 297 296 294 291 285 281 277 276 277 276 275 271 264 263 261 260 258 257 258
316 345 305 259 253 266 274 282 286 285 285 286 286 289 293 298 298 299 297 295 295 295 297 298 298 297 296 295 291 287 280 276 273 270 268 267 264 261 260 258 257 254 255
348 22 250 265 274 280 282 283 280 287 288 289 289 288 290 292 291 289 290 295 297 297 297 298 298 299 300 300 299 294 290 284 278 274 266 259 259 258 256 258 254 252 253
335 315 284 278 278 281 284 286 287 285 286 286 286 288 289 286 288 291 296 297 299 299 301 302 303 303 304 304 303 300 297 284 277 273 266 258 254 255 255 252 255 253 252
300 295 295 292 288 286 286 289 296 295 295 293 295 291 288 287 289 297 302 305 304 301 303 310 314 315 320 322 315 309 306 301 289 278 271 260 254 252 251 249 245 248 253
308 302 295 290 290 293 301 302 297 298 300 300 300 297 294 294 300 305 306 308 309 308 307 314 324 318 329 328 329 329 330 322 311 299 279 272 257 251 249 249 245 242 247
298 296 293 293 297 302 307 312 308 303 315 335 353 351 334 333 330 321 325 324 323 323 319 324 326 323 327 341 340 326 326 327 317 310 301 281 267 250 247 247 247 247 247
298 293 293 293 292 310 315 323 314 307 321 327 328 335 336 333 323 330 325 327 341 339 322 328 325 324 320 341 352 343 333 331 322 328 322 304 277 259 250 247 249 246 245
305 302 298 287 289 307 316 328 332 335 330 321 329 331 329 332 337 332 334 345 348 341 344 337 332 338 337 347 339 342 344 339 346 328 332 330 294 282 252 250 251 248 246
303 306 306 303 308 320 329 339 339 342 339 329 344 343 347 347 339 347 5 358 348 353 1 360 356 355 353 352 346 339 347 351 349 357 359 341 350 327 267 257 251 242 243
304 304 306 311 319 329 340 348 353 15 22 13 23 22 21 22 23 21 10 3 15 15 13 12 8 3 356 357 358 2 354 1 353 354 359 356 11 331 330 299 219 206 224
306 307 314 319 327 337 352 6 13 19 24 6 3 13 21 22 20 27 30 29 27 27 26 27 25 20 13 11 11 11 7 1 358 358 351 345 346 11 11 73 340 286 217